カタログに戻る

FENGYUN 2H DEB

運用中GEO
NORAD 43645·DEBRIS·🇨🇳 China

打ち上げ Jun 5, 2018 から Xichang Satellite Launch Center

Loading…

TLE

最新Source: Space-Track

元期: Sep 10, 2026, 00:16 UTC

1 43645U 18050D   26253.01114041 -.00000181  00000-0  00000-0 0  9997
2 43645   5.1098  75.0455 0057055 272.7429  86.9045  1.00320171 29770

AllMySatでFENGYUN 2H DEBをリアルタイム追跡

Download on the App Store